Time,TemperatureF,DewpointF,PressureIn,WindDirection,WindDirectionDegrees,WindSpeedMPH,WindSpeedGustMPH,Humidity,HourlyPrecipIn,Conditions,Clouds,dailyrainin,SoftwareType,DateUTC
2013-06-08 00:13:00,47.0,22.0,-100.00,NNW,340,1.0,2.0,37,-99.99,,,-99.99,,2013-06-08 04:13:00,
2013-06-08 00:23:00,47.0,22.0,-100.00,NNE,15,0.0,1.0,37,-99.99,,,-99.99,,2013-06-08 04:23:00,
2013-06-08 00:33:00,45.0,20.0,-100.00,WNW,300,0.0,1.0,37,-99.99,,,-99.99,,2013-06-08 04:33:00,
2013-06-08 00:53:00,45.0,20.0,-100.00,WSW,255,0.0,2.0,37,-99.99,,,-99.99,,2013-06-08 04:53:00,
2013-06-08 01:02:00,45.0,20.0,-100.00,NNE,15,2.0,2.0,37,-99.99,,,-99.99,,2013-06-08 05:02:00,
2013-06-08 01:12:00,45.0,20.0,-100.00,NNE,30,1.0,2.0,37,-99.99,,,-99.99,,2013-06-08 05:12:00,
2013-06-08 01:22:00,45.0,20.0,-100.00,NNE,15,2.0,2.0,37,-99.99,,,-99.99,,2013-06-08 05:22:00,
2013-06-08 01:32:00,44.0,19.0,-100.00,NNE,25,2.0,2.0,37,-99.99,,,-99.99,,2013-06-08 05:32:00,
2013-06-08 01:42:00,44.0,19.0,-100.00,NNE,15,2.0,2.0,37,-99.99,,,-99.99,,2013-06-08 05:42:00,
2013-06-08 01:52:00,44.0,19.0,-100.00,North,10,3.0,3.0,37,-99.99,,,-99.99,,2013-06-08 05:52:00,
2013-06-08 02:02:00,44.0,19.0,-100.00,North,10,3.0,3.0,37,-99.99,,,-99.99,,2013-06-08 06:02:00,
2013-06-08 02:12:00,44.0,19.0,-100.00,NNE,20,3.0,5.0,37,-99.99,,,-99.99,,2013-06-08 06:12:00,
2013-06-08 02:22:00,44.0,19.0,-100.00,NNE,25,2.0,5.0,37,-99.99,,,-99.99,,2013-06-08 06:22:00,
2013-06-08 02:32:00,42.0,37.0,-100.00,North,0,2.0,-999.0,82,-99.99,,,-99.99,,2013-06-08 06:32:00,
2013-06-08 02:42:00,42.0,37.0,-100.00,North,0,2.0,-999.0,82,-99.99,,,-99.99,,2013-06-08 06:42:00,
2013-06-08 02:52:00,42.0,37.0,-100.00,North,10,3.0,-999.0,82,-99.99,,,-99.99,,2013-06-08 06:52:00,
2013-06-08 03:02:00,42.0,37.0,-100.00,NNE,15,3.0,-999.0,82,-99.99,,,-99.99,,2013-06-08 07:02:00,
2013-06-08 03:12:00,42.0,37.0,-100.00,North,0,2.0,-999.0,82,-99.99,,,-99.99,,2013-06-08 07:12:00,
2013-06-08 03:22:00,42.0,37.0,-100.00,North,10,3.0,-999.0,82,-99.99,,,-99.99,,2013-06-08 07:22:00,
2013-06-08 03:32:00,41.0,37.0,-100.00,NNE,25,2.0,2.0,86,-99.99,,,-99.99,,2013-06-08 07:32:00,
2013-06-08 03:42:00,41.0,37.0,-100.00,NNE,15,2.0,-999.0,86,-99.99,,,-99.99,,2013-06-08 07:42:00,
2013-06-08 03:52:00,41.0,37.0,-100.00,NNE,15,2.0,-999.0,86,-99.99,,,-99.99,,2013-06-08 07:52:00,
2013-06-08 04:02:00,41.0,37.0,-100.00,NNE,15,3.0,-999.0,86,-99.99,,,-99.99,,2013-06-08 08:02:00,
2013-06-08 04:12:00,41.0,37.0,-100.00,NNE,20,2.0,-999.0,86,-99.99,,,-99.99,,2013-06-08 08:12:00,
2013-06-08 04:22:00,41.0,39.0,-100.00,NNW,345,2.0,-999.0,93,-99.99,,,-99.99,,2013-06-08 08:22:00,
2013-06-08 04:32:00,41.0,38.0,-100.00,NNE,20,2.0,-999.0,89,-99.99,,,-99.99,,2013-06-08 08:32:00,
2013-06-08 04:42:00,41.0,38.0,-100.00,NNE,20,2.0,-999.0,89,-99.99,,,-99.99,,2013-06-08 08:42:00,
2013-06-08 04:52:00,41.0,38.0,-100.00,NNE,25,1.0,-999.0,89,-99.99,,,-99.99,,2013-06-08 08:52:00,
2013-06-08 05:02:00,41.0,38.0,-100.00,NNE,20,0.0,-999.0,89,-99.99,,,-99.99,,2013-06-08 09:02:00,
2013-06-08 05:12:00,41.0,38.0,-100.00,North,10,1.0,-999.0,89,-99.99,,,-99.99,,2013-06-08 09:12:00,
2013-06-08 05:22:00,41.0,37.0,-100.00,North,350,2.0,-999.0,86,-99.99,,,-99.99,,2013-06-08 09:22:00,
2013-06-08 05:33:00,41.0,38.0,-100.00,North,352,2.0,-999.0,89,-99.99,,,-99.99,,2013-06-08 09:33:00,
2013-06-08 05:43:00,41.0,38.0,-100.00,SSW,195,0.0,-999.0,89,-99.99,,,-99.99,,2013-06-08 09:43:00,
2013-06-08 05:53:00,41.0,38.0,-100.00,SE,145,0.0,-999.0,89,-99.99,,,-99.99,,2013-06-08 09:53:00,
2013-06-08 06:03:00,41.0,38.0,-100.00,SE,145,0.0,-999.0,89,-99.99,,,-99.99,,2013-06-08 10:03:00,
2013-06-08 06:12:00,41.0,38.0,-100.00,SE,145,0.0,-999.0,89,-99.99,,,-99.99,,2013-06-08 10:12:00,
2013-06-08 06:22:00,41.0,37.0,-100.00,NNE,20,1.0,-999.0,87,-99.99,,,-99.99,,2013-06-08 10:22:00,
2013-06-08 06:33:00,41.0,38.0,-100.00,North,0,1.0,-999.0,88,-99.99,,,-99.99,,2013-06-08 10:33:00,
2013-06-08 06:43:00,41.0,38.0,-100.00,North,0,1.0,-999.0,88,-99.99,,,-99.99,,2013-06-08 10:43:00,
2013-06-08 06:52:00,41.0,38.0,-100.00,North,0,1.0,-999.0,88,-99.99,,,-99.99,,2013-06-08 10:52:00,
2013-06-08 07:02:00,41.0,37.0,-100.00,NW,325,2.0,-999.0,87,-99.99,,,-99.99,,2013-06-08 11:02:00,
2013-06-08 07:12:00,41.0,37.0,-100.00,North,355,2.0,-999.0,87,-99.99,,,-99.99,,2013-06-08 11:12:00,
2013-06-08 07:22:00,41.0,38.0,-100.00,NNE,15,2.0,3.0,88,-99.99,,,-99.99,,2013-06-08 11:22:00,
2013-06-08 07:32:00,42.0,39.0,-100.00,North,5,3.0,3.0,88,-99.99,,,-99.99,,2013-06-08 11:32:00,
2013-06-08 07:42:00,42.0,39.0,-100.00,North,355,2.0,3.0,88,-99.99,,,-99.99,,2013-06-08 11:42:00,
2013-06-08 07:52:00,42.0,38.0,-100.00,North,0,2.0,3.0,86,-99.99,,,-99.99,,2013-06-08 11:52:00,
2013-06-08 08:02:00,42.0,37.0,-100.00,North,5,1.0,3.0,83,-99.99,,,-99.99,,2013-06-08 12:02:00,
2013-06-08 08:12:00,42.0,37.0,-100.00,North,5,1.0,3.0,82,-99.99,,,-99.99,,2013-06-08 12:12:00,
2013-06-08 08:22:00,42.0,37.0,-100.00,North,5,1.0,3.0,83,-99.99,,,-99.99,,2013-06-08 12:22:00,
2013-06-08 08:32:00,47.0,42.0,-100.00,North,5,1.0,3.0,84,-99.99,,,-99.99,,2013-06-08 12:32:00,
2013-06-08 08:42:00,47.0,41.0,-100.00,North,5,2.0,3.0,81,-99.99,,,-99.99,,2013-06-08 12:42:00,
2013-06-08 08:52:00,47.0,42.0,-100.00,NW,310,1.0,3.0,82,-99.99,,,-99.99,,2013-06-08 12:52:00,
2013-06-08 09:02:00,47.0,41.0,-100.00,NW,310,1.0,3.0,80,-99.99,,,-99.99,,2013-06-08 13:02:00,
2013-06-08 09:12:00,47.0,40.0,-100.00,NW,315,2.0,3.0,78,-99.99,,,-99.99,,2013-06-08 13:12:00,
2013-06-08 09:22:00,47.0,39.0,-100.00,NNW,330,2.0,3.0,74,-99.99,,,-99.99,,2013-06-08 13:22:00,
2013-06-08 09:32:00,53.0,43.0,-100.00,NW,305,2.0,3.0,69,-99.99,,,-99.99,,2013-06-08 13:32:00,
2013-06-08 09:42:00,53.0,43.0,-100.00,NW,305,2.0,3.0,69,-99.99,,,-99.99,,2013-06-08 13:42:00,
2013-06-08 09:52:00,53.0,38.0,-100.00,WNW,285,5.0,5.0,57,-99.99,,,-99.99,,2013-06-08 13:52:00,
2013-06-08 10:02:00,53.0,38.0,-100.00,WNW,285,5.0,5.0,57,-99.99,,,-99.99,,2013-06-08 14:02:00,
2013-06-08 10:12:00,53.0,38.0,-100.00,NW,315,2.0,3.0,56,-99.99,,,-99.99,,2013-06-08 14:12:00,
2013-06-08 10:22:00,53.0,38.0,-100.00,WNW,285,1.0,3.0,57,-99.99,,,-99.99,,2013-06-08 14:22:00,
2013-06-08 10:32:00,58.0,40.0,-100.00,NE,45,2.0,3.0,52,-99.99,,,-99.99,,2013-06-08 14:32:00,
2013-06-08 10:42:00,58.0,37.0,-100.00,NW,320,1.0,3.0,46,-99.99,,,-99.99,,2013-06-08 14:42:00,
2013-06-08 10:52:00,58.0,38.0,-100.00,ENE,70,1.0,3.0,47,-99.99,,,-99.99,,2013-06-08 14:52:00,
2013-06-08 11:02:00,58.0,37.0,-100.00,SSW,210,1.0,3.0,45,-99.99,,,-99.99,,2013-06-08 15:02:00,
2013-06-08 11:12:00,58.0,38.0,-100.00,West,270,2.0,3.0,48,-99.99,,,-99.99,,2013-06-08 15:12:00,
2013-06-08 11:22:00,58.0,30.0,-100.00,SW,235,3.0,3.0,34,-99.99,,,-99.99,,2013-06-08 15:22:00,
2013-06-08 11:32:00,60.0,35.0,-100.00,NE,55,1.0,6.0,39,-99.99,,,-99.99,,2013-06-08 15:32:00,
2013-06-08 11:42:00,60.0,35.0,-100.00,NE,55,1.0,6.0,39,-99.99,,,-99.99,,2013-06-08 15:42:00,
2013-06-08 11:53:00,60.0,30.0,-100.00,NE,55,6.0,6.0,32,-99.99,,,-99.99,,2013-06-08 15:53:00,
2013-06-08 12:03:00,60.0,29.0,-100.00,SSW,195,2.0,6.0,31,-99.99,,,-99.99,,2013-06-08 16:03:00,
2013-06-08 12:12:00,60.0,29.0,-100.00,SW,235,2.0,7.0,31,-99.99,,,-99.99,,2013-06-08 16:12:00,
2013-06-08 12:23:00,60.0,32.0,-100.00,SW,220,5.0,7.0,34,-99.99,,,-99.99,,2013-06-08 16:23:00,
2013-06-08 12:33:00,62.0,33.0,-100.00,SW,235,3.0,7.0,33,-99.99,,,-99.99,,2013-06-08 16:33:00,
2013-06-08 12:42:00,62.0,33.0,-100.00,SW,235,3.0,7.0,33,-99.99,,,-99.99,,2013-06-08 16:42:00,
2013-06-08 12:53:00,62.0,33.0,-100.00,SW,225,2.0,7.0,34,-99.99,,,-99.99,,2013-06-08 16:53:00,
2013-06-08 13:02:00,62.0,31.0,-100.00,SSE,160,5.0,7.0,31,-99.99,,,-99.99,,2013-06-08 17:02:00,
2013-06-08 13:12:00,62.0,32.0,-100.00,South,190,2.0,7.0,32,-99.99,,,-99.99,,2013-06-08 17:12:00,
2013-06-08 13:22:00,62.0,35.0,-100.00,WSW,250,5.0,7.0,37,-99.99,,,-99.99,,2013-06-08 17:22:00,
2013-06-08 13:32:00,64.0,37.0,-100.00,SW,220,5.0,7.0,36,-99.99,,,-99.99,,2013-06-08 17:32:00,
2013-06-08 13:42:00,64.0,37.0,-100.00,SW,220,5.0,7.0,36,-99.99,,,-99.99,,2013-06-08 17:42:00,
2013-06-08 13:52:00,64.0,37.0,-100.00,SW,220,7.0,7.0,36,-99.99,,,-99.99,,2013-06-08 17:52:00,
2013-06-08 14:02:00,64.0,37.0,-100.00,WSW,240,5.0,7.0,37,-99.99,,,-99.99,,2013-06-08 18:02:00,
2013-06-08 14:12:00,64.0,37.0,-100.00,ENE,65,2.0,8.0,36,-99.99,,,-99.99,,2013-06-08 18:12:00,
2013-06-08 14:22:00,64.0,38.0,-100.00,SW,230,3.0,8.0,38,-99.99,,,-99.99,,2013-06-08 18:22:00,
2013-06-08 14:32:00,66.0,37.0,-100.00,NW,305,2.0,7.0,34,-99.99,,,-99.99,,2013-06-08 18:32:00,
2013-06-08 14:42:00,66.0,37.0,-100.00,NW,305,2.0,7.0,34,-99.99,,,-99.99,,2013-06-08 18:42:00,
2013-06-08 14:52:00,66.0,35.0,-100.00,SSE,155,8.0,10.0,32,-99.99,,,-99.99,,2013-06-08 18:52:00,
2013-06-08 15:03:00,66.0,36.0,-100.00,SE,135,3.0,10.0,33,-99.99,,,-99.99,,2013-06-08 19:03:00,
2013-06-08 15:12:00,66.0,35.0,-100.00,SSE,155,7.0,14.0,32,-99.99,,,-99.99,,2013-06-08 19:12:00,
2013-06-08 15:22:00,66.0,35.0,-100.00,SE,125,5.0,12.0,32,-99.99,,,-99.99,,2013-06-08 19:22:00,
2013-06-08 15:32:00,69.0,40.0,-100.00,WSW,250,5.0,12.0,35,-99.99,,,-99.99,,2013-06-08 19:32:00,
2013-06-08 15:42:00,69.0,42.0,-100.00,WSW,245,3.0,13.0,37,-99.99,,,-99.99,,2013-06-08 19:42:00,
2013-06-08 15:53:00,69.0,39.0,-100.00,SW,235,8.0,13.0,33,-99.99,,,-99.99,,2013-06-08 19:53:00,
2013-06-08 16:02:00,69.0,40.0,-100.00,SSW,205,2.0,14.0,34,-99.99,,,-99.99,,2013-06-08 20:02:00,
2013-06-08 16:12:00,69.0,43.0,-100.00,SSW,200,7.0,15.0,39,-99.99,,,-99.99,,2013-06-08 20:12:00,
2013-06-08 16:22:00,69.0,42.0,-100.00,SW,225,13.0,20.0,38,-99.99,,,-99.99,,2013-06-08 20:22:00,
2013-06-08 16:32:00,68.0,41.0,-100.00,SSW,195,8.0,13.0,38,-99.99,,,-99.99,,2013-06-08 20:32:00,
2013-06-08 16:42:00,68.0,41.0,-100.00,SSW,195,8.0,13.0,38,-99.99,,,-99.99,,2013-06-08 20:42:00,
2013-06-08 16:52:00,68.0,41.0,-100.00,SSE,160,7.0,18.0,37,-99.99,,,-99.99,,2013-06-08 20:52:00,
2013-06-08 17:02:00,68.0,41.0,-100.00,SSE,160,7.0,18.0,37,-99.99,,,-99.99,,2013-06-08 21:02:00,
2013-06-08 17:12:00,68.0,41.0,-100.00,SSE,160,7.0,18.0,37,-99.99,,,-99.99,,2013-06-08 21:12:00,
2013-06-08 17:22:00,68.0,41.0,-100.00,South,190,9.0,13.0,38,-99.99,,,-99.99,,2013-06-08 21:22:00,
2013-06-08 17:33:00,68.0,40.0,-100.00,SSW,200,2.0,13.0,36,-99.99,,,-99.99,,2013-06-08 21:33:00,
2013-06-08 17:43:00,68.0,41.0,-100.00,South,175,6.0,9.0,37,-99.99,,,-99.99,,2013-06-08 21:43:00,
2013-06-08 17:52:00,68.0,41.0,-100.00,SSE,155,9.0,9.0,37,-99.99,,,-99.99,,2013-06-08 21:52:00,
2013-06-08 18:02:00,68.0,41.0,-100.00,SSE,155,9.0,9.0,37,-99.99,,,-99.99,,2013-06-08 22:02:00,
2013-06-08 18:12:00,68.0,43.0,-100.00,SW,215,7.0,12.0,40,-99.99,,,-99.99,,2013-06-08 22:12:00,
2013-06-08 18:22:00,68.0,43.0,-100.00,SW,215,7.0,12.0,40,-99.99,,,-99.99,,2013-06-08 22:22:00,
2013-06-08 18:33:00,67.0,42.0,-100.00,SSW,200,5.0,10.0,40,-99.99,,,-99.99,,2013-06-08 22:33:00,
2013-06-08 18:42:00,67.0,42.0,-100.00,South,170,3.0,10.0,41,-99.99,,,-99.99,,2013-06-08 22:42:00,
2013-06-08 18:52:00,67.0,42.0,-100.00,SSW,195,5.0,7.0,41,-99.99,,,-99.99,,2013-06-08 22:52:00,
2013-06-08 19:02:00,67.0,42.0,-100.00,SSW,195,5.0,7.0,41,-99.99,,,-99.99,,2013-06-08 23:02:00,
2013-06-08 19:12:00,67.0,42.0,-100.00,SSW,195,5.0,7.0,41,-99.99,,,-99.99,,2013-06-08 23:12:00,
2013-06-08 19:22:00,67.0,43.0,-100.00,South,170,3.0,7.0,42,-99.99,,,-99.99,,2013-06-08 23:22:00,
2013-06-08 19:32:00,65.0,40.0,-100.00,South,185,5.0,7.0,40,-99.99,,,-99.99,,2013-06-08 23:32:00,
2013-06-08 19:42:00,65.0,41.0,-100.00,South,185,5.0,7.0,42,-99.99,,,-99.99,,2013-06-08 23:42:00,
2013-06-08 19:52:00,65.0,43.0,-100.00,SSE,165,3.0,6.0,45,-99.99,,,-99.99,,2013-06-08 23:52:00,
2013-06-08 20:02:00,65.0,43.0,-100.00,SSE,165,3.0,6.0,45,-99.99,,,-99.99,,2013-06-09 00:02:00,
2013-06-08 20:12:00,65.0,44.0,-100.00,SSE,150,3.0,5.0,47,-99.99,,,-99.99,,2013-06-09 00:12:00,
2013-06-08 20:22:00,65.0,45.0,-100.00,South,175,2.0,3.0,48,-99.99,,,-99.99,,2013-06-09 00:22:00,
2013-06-08 20:32:00,65.0,45.0,-100.00,South,175,2.0,3.0,48,-99.99,,,-99.99,,2013-06-09 00:32:00,
2013-06-08 20:42:00,63.0,46.0,-100.00,South,185,5.0,5.0,53,-99.99,,,-99.99,,2013-06-09 00:42:00,
2013-06-08 21:12:00,63.0,41.0,-100.00,SSW,195,3.0,7.0,45,-99.99,,,-99.99,,2013-06-09 01:12:00,
2013-06-08 21:32:00,60.0,42.0,-100.00,South,175,2.0,5.0,51,-99.99,,,-99.99,,2013-06-09 01:32:00,
2013-06-08 21:42:00,60.0,42.0,-100.00,South,175,2.0,5.0,51,-99.99,,,-99.99,,2013-06-09 01:42:00,
2013-06-08 21:52:00,60.0,42.0,-100.00,SSW,195,3.0,6.0,51,-99.99,,,-99.99,,2013-06-09 01:52:00,
2013-06-08 22:02:00,60.0,42.0,-100.00,SSW,195,3.0,6.0,51,-99.99,,,-99.99,,2013-06-09 02:02:00,
2013-06-08 22:12:00,60.0,42.0,-100.00,SSW,195,3.0,6.0,51,-99.99,,,-99.99,,2013-06-09 02:12:00,
2013-06-08 22:22:00,60.0,42.0,-100.00,South,180,3.0,6.0,51,-99.99,,,-99.99,,2013-06-09 02:22:00,
2013-06-08 23:12:00,57.0,48.0,-100.00,SSE,150,1.0,3.0,71,-99.99,,,-99.99,,2013-06-09 03:12:00,